Home   Weather   Kangerlussuaq   Past weeks
Flag for Greenland

Past Weather in Kangerlussuaq, Greenland — Yesterday and Last 2 Weeks

Now
27 °F

Passing clouds.


Feels Like: 23 °F
Forecast: 35 / 23 °F
Wind: 3 mph from West

Location: Sdr Stroemfjord

Current Time: Apr 21, 2019 at 3:07:18 am

Latest Report: Apr 21, 2019 at 1:50 am


Visibility: N/A

Pressure: 29.59 "Hg

Humidity: 80%

Dew Point: 21 °F

Location of KangerlussuaqLocation

Past Weather in Kangerlussuaq — Graph

°F

Kangerlussuaq Temperature Yesterday

Maximum temperature yesterday: 39 °F (at 4:50 pm)
Minimum temperature yesterday: 12 °F (at 2:50 am)
Average temperature yesterday: 26 °F

High & Low Weather Summary for the Past Weeks

 TemperatureHumidityPressure
High54 °F (Apr 14, 3:50 pm)93% (Apr 11, 4:50 am)30.07 "Hg (Apr 11, 4:50 am)
Low3 °F (Apr 19, 5:50 am)22% (Apr 20, 2:50 pm)29.09 "Hg (Apr 14, 4:50 pm)
Average30 °F61%29.69 "Hg
* Reported Apr 6 1:50 am — Apr 21 1:50 am, Kangerlussuaq. Weather by CustomWeather, © 2019

Note: Actual official high and low records may vary slightly from our data, if they occured in-between our weather recording intervals... More about our weather records

Advertising

Kangerlussuaq Weather History for the Previous 24 Hours

Scroll right to see more
 ConditionsComfort  
Time TempWeatherWind HumidityBarometerVisibility
1:50 am
Sun, Apr 21
27 °FPassing clouds.3 mph80%29.59 "HgN/A
12:50 am28 °FPartly cloudy.3 mph74%29.59 "HgN/A
11:50 pm
Sat, Apr 20
30 °FPassing clouds.3 mph69%29.56 "HgN/A
10:50 pm30 °FPassing clouds.2 mph69%29.56 "HgN/A
9:50 pm28 °FPartly cloudy.1 mph86%29.56 "HgN/A
8:50 pm34 °FPassing clouds.5 mph60%29.53 "HgN/A
7:50 pm34 °FScattered clouds.1 mph65%29.53 "HgN/A
6:50 pm39 °FBroken clouds.6 mph28%29.53 "HgN/A
5:50 pm39 °FPassing clouds.7 mph24%29.53 "HgN/A
4:50 pm39 °FScattered clouds.8 mph24%29.53 "HgN/A
3:50 pm37 °FBroken clouds.6 mph22%29.53 "HgN/A
2:50 pm37 °FScattered clouds.3 mph22%29.56 "HgN/A
1:50 pm36 °FBroken clouds.5 mph27%29.56 "HgN/A
12:50 pm32 °FBroken clouds.5 mph34%29.59 "HgN/A
11:50 am28 °FPassing clouds.5 mph51%29.59 "HgN/A
10:50 am27 °FPassing clouds.5 mph46%29.62 "HgN/A
9:50 am25 °FCold.5 mph39%29.62 "HgN/A
8:50 am21 °FCold.8 mph49%29.62 "HgN/A
7:50 am18 °FPassing clouds.8 mph58%29.65 "HgN/A
6:50 am16 °FPassing clouds.6 mph57%29.65 "HgN/A
5:50 am12 °FCold.6 mph67%29.65 "HgN/A
4:50 am12 °FCold.7 mph67%29.62 "HgN/A
3:50 am14 °FCold.8 mph57%29.62 "HgN/A
Weather by CustomWeather, © 2019

See weather overview